Lapse_Rate
5.5 5.2 5.0 4.9 4.8 5.0 5.1 5.3 5.4 5.3 5.2 5.0 5.0 4.9 5.0 5.1 5.2 5.4 5.6 5.7 5.5 5.2
5.2 5.0 4.9 4.8 4.9 5.1 5.3 5.4 5.2 5.0 4.8 4.7 4.7 4.8 5.0 5.3 5.4 5.5 5.3 5.3 5.1 5.0
5.0 5.0 4.9 5.1 5.2 5.3 5.3 5.1 4.9 4.6 4.6 4.7 4.8 5.1 5.3 5.3 5.2 5.4 5.3 5.3 5.2 5.1
5.1 5.1 5.0 5.0 5.1 5.0 4.9 4.7 4.6 4.6 4.7 4.9 5.0 5.0 5.0 5.0 5.1 5.2 5.1 5.1 5.0 5.0
4.9 4.9 4.9 4.9 4.7 4.5 4.5 4.6 4.7 4.9 5.0 5.1 5.2 5.2 5.2 5.2 5.2 5.2 5.1 5.0 4.9 4.8
4.8 4.7 4.6 4.5 4.4 4.5 4.6 4.7 4.8 4.9 5.0 5.1 5.1 5.1 5.1 5.0 5.0 5.0 5.0 5.0 5.0 5.1
4.8 4.6 4.6 4.6 4.6 4.7 4.8 4.9 5.0 5.1 5.1 5.1 5.0 5.0 5.0 4.9 5.0 5.1 5.3 5.3 5.2 5.2
4.7 4.7 4.7 4.8 4.8 4.9 5.0 5.1 5.3 5.3 5.2 5.1 5.1 5.0 5.0 5.1 5.2 5.3 5.4 5.4 5.4 5.4
4.8 4.9 4.9 5.1 5.3 5.3 5.4 5.4 5.3 5.3 5.4 5.3 5.2 5.3 5.4 5.4 5.5 5.6 5.6 5.7 5.7 5.6
4.8 5.0 5.2 5.4 5.5 5.6 5.6 5.5 5.6 5.6 5.6 5.6 5.6 5.6 5.7 5.7 5.9 5.9 5.9 5.8 5.8 5.8
5.2 5.5 5.7 5.7 5.9 5.9 5.8 5.7 5.6 5.6 5.6 5.8 5.8 5.8 6.0 6.1 6.1 6.2 6.0 6.0 6.0 5.9
5.6 5.8 5.9 5.9 5.9 5.9 5.9 5.9 5.9 5.9 5.9 5.9 5.8 5.9 5.9 6.1 6.1 6.0 5.9 6.0 5.9 5.9
5.9 6.0 6.2 6.2 6.2 6.2 6.2 6.2 6.2 6.0 5.8 5.6 5.7 5.6 5.7 5.6 5.6 5.6 5.7 5.8 5.9 6.0
6.2 6.4 6.4 6.4 6.3 6.4 6.5 6.3 6.1 6.0 5.8 5.6 5.5 5.4 5.4 5.5 5.6 5.6 5.7 5.8 5.9 5.9
Wind_Speed
3 2 2 3 2 3 3 4 5 6 6 9 10 8 7 3 4 5 4 6 5 3
2 2 2 3 3 3 4 3 5 6 5 5 7 8 6 4 5 5 5 6 5 4
0 1 1 2 4 4 4 4 6 6 5 5 5 6 5 5 5 5 4 4 6 5
2 2 2 2 3 4 4 5 5 5 5 5 5 5 5 6 6 6 6 5 6 6
3 2 2 3 4 4 5 5 5 5 5 5 5 5 5 6 6 6 7 7 6 7
2 2 3 3 4 4 5 5 6 5 6 6 6 5 5 5 6 6 6 6 7 7
3 2 2 3 3 4 4 5 6 6 6 6 6 6 6 6 6 5 5 6 6 7
3 2 2 3 4 5 5 5 5 5 6 6 5 4 6 6 5 5 6 6 6 6
3 3 3 4 5 5 5 6 5 6 6 6 4 9 10 6 4 5 6 7 6 6
4 4 4 4 4 5 6 4 6 6 6 6 6 10 11 9 3 4 5 6 6 7
4 5 4 4 5 5 3 4 5 5 6 6 6 12 12 9 5 4 6 6 7 7
3 4 4 5 6 5 4 5 5 5 6 6 8 12 13 10 4 5 6 6 6 6
3 4 5 6 6 4 3 5 4 7 5 9 8 12 14 10 3 5 4 5 6 12
4 5 6 5 3 4 5 5 5 6 7 7 7 8 12 9 3 4 4 4 5 5
Wind_Direction
213 205 225 239 257 279 282 290 294 297 277 241 236 236 226 211 230 226 238 242 237 242
181 200 253 296 300 292 292 284 301 304 291 267 235 232 214 212 228 227 238 238 240 232
258 358 278 296 300 302 304 310 317 309 303 297 271 250 225 232 238 234 242 239 238 236
278 285 294 311 315 319 320 322 320 311 297 289 286 273 245 240 239 239 246 245 241 242
288 308 338 335 323 330 328 327 323 322 316 305 298 285 262 256 247 237 245 244 246 246
339 1 331 322 325 333 328 321 323 332 326 322 311 301 292 275 270 260 252 247 240 243
250 256 285 299 307 313 314 317 323 321 313 312 309 314 311 305 304 300 291 283 263 251
232 253 280 295 300 312 320 312 311 315 317 320 319 300 308 299 294 298 298 292 284 271
247 271 286 302 304 307 308 309 313 322 320 316 306 311 314 300 285 292 288 288 284 278
264 267 275 285 299 305 305 313 313 309 306 297 289 296 303 291 274 286 279 277 282 291
262 270 289 303 304 302 292 294 293 291 291 297 295 297 298 280 267 275 276 273 275 270
251 273 287 289 286 281 277 283 279 273 282 276 284 287 292 287 265 280 284 288 282 280
254 263 271 268 267 255 238 267 274 285 265 274 280 289 293 285 251 282 292 293 293 309
267 265 262 265 236 259 279 283 285 281 288 271 267 283 291 275 246 258 283 289 298 297